Time,TemperatureF,DewpointF,PressureIn,WindDirection,WindDirectionDegrees,WindSpeedMPH,WindSpeedGustMPH,Humidity,HourlyPrecipIn,Conditions,Clouds,dailyrainin,SoftwareType,DateUTC
2013-02-20 00:01:00,47.5,32.0,29.88,West,263,1.0,11.0,55,0.00,,,0.00,weatherlink.com 1.10,2013-02-20 05:01:00,
2013-02-20 00:16:00,46.9,32.0,29.87,SW,232,3.0,7.0,56,0.00,,,0.00,weatherlink.com 1.10,2013-02-20 05:16:00,
2013-02-20 00:31:00,46.6,32.0,29.88,WNW,293,6.0,8.0,57,0.00,,,0.00,weatherlink.com 1.10,2013-02-20 05:31:00,
2013-02-20 00:46:00,46.2,31.0,29.88,West,270,1.0,7.0,56,0.00,,,0.00,weatherlink.com 1.10,2013-02-20 05:46:00,
2013-02-20 01:01:00,45.6,30.0,29.89,West,279,3.0,5.0,55,0.00,,,0.00,weatherlink.com 1.10,2013-02-20 06:01:00,
2013-02-20 01:16:00,45.2,30.0,29.89,West,265,1.0,5.0,55,0.00,,,0.00,weatherlink.com 1.10,2013-02-20 06:16:00,
2013-02-20 01:31:00,44.7,29.0,29.90,SW,221,1.0,9.0,55,0.00,,,0.00,weatherlink.com 1.10,2013-02-20 06:31:00,
2013-02-20 01:46:00,44.3,29.0,29.90,West,261,0.0,5.0,55,0.00,,,0.00,weatherlink.com 1.10,2013-02-20 06:46:00,
2013-02-20 02:01:00,44.0,29.0,29.91,WSW,252,2.0,5.0,55,0.00,,,0.00,weatherlink.com 1.10,2013-02-20 07:01:00,
2013-02-20 02:16:00,43.7,29.0,29.91,West,268,2.0,7.0,57,0.00,,,0.00,weatherlink.com 1.10,2013-02-20 07:16:00,
2013-02-20 02:31:00,43.7,31.0,29.91,WNW,284,6.0,8.0,61,0.00,,,0.00,weatherlink.com 1.10,2013-02-20 07:31:00,
2013-02-20 02:46:00,43.3,32.0,29.91,West,267,5.0,8.0,64,0.00,,,0.00,weatherlink.com 1.10,2013-02-20 07:46:00,
2013-02-20 03:17:00,42.6,31.0,29.92,West,271,0.0,6.0,65,0.00,,,0.00,weatherlink.com 1.10,2013-02-20 08:17:00,
2013-02-20 03:32:00,42.1,31.0,29.92,West,279,3.0,5.0,65,0.00,,,0.00,weatherlink.com 1.10,2013-02-20 08:32:00,
2013-02-20 03:47:00,41.6,31.0,29.92,West,275,3.0,8.0,66,0.00,,,0.00,weatherlink.com 1.10,2013-02-20 08:47:00,
2013-02-20 04:02:00,41.4,30.0,29.92,WNW,289,4.0,7.0,65,0.00,,,0.00,weatherlink.com 1.10,2013-02-20 09:02:00,
2013-02-20 04:17:00,41.3,30.0,29.93,West,271,3.0,10.0,64,0.00,,,0.00,weatherlink.com 1.10,2013-02-20 09:17:00,
2013-02-20 04:32:00,41.0,29.0,29.94,West,280,1.0,8.0,63,0.00,,,0.00,weatherlink.com 1.10,2013-02-20 09:32:00,
2013-02-20 04:47:00,40.8,29.0,29.94,WSW,257,2.0,6.0,62,0.00,,,0.00,weatherlink.com 1.10,2013-02-20 09:47:00,
2013-02-20 05:02:00,40.7,28.0,29.95,West,281,3.0,9.0,60,0.00,,,0.00,weatherlink.com 1.10,2013-02-20 10:02:00,
2013-02-20 05:17:00,40.4,27.0,29.96,WNW,284,5.0,8.0,60,0.00,,,0.00,weatherlink.com 1.10,2013-02-20 10:17:00,
2013-02-20 05:32:00,40.4,26.0,29.97,West,275,5.0,11.0,57,0.00,,,0.00,weatherlink.com 1.10,2013-02-20 10:32:00,
2013-02-20 05:47:00,40.4,26.0,29.97,NW,318,7.0,9.0,57,0.00,,,0.00,weatherlink.com 1.10,2013-02-20 10:47:00,
2013-02-20 06:03:00,39.8,26.0,29.98,West,259,2.0,8.0,57,0.00,,,0.00,weatherlink.com 1.10,2013-02-20 11:03:00,
2013-02-20 06:18:00,39.8,25.0,29.98,WNW,300,6.0,12.0,55,0.00,,,0.00,weatherlink.com 1.10,2013-02-20 11:18:00,
2013-02-20 06:33:00,39.5,25.0,29.99,West,275,7.0,10.0,56,0.00,,,0.00,weatherlink.com 1.10,2013-02-20 11:33:00,
2013-02-20 06:48:00,39.4,25.0,29.99,SW,229,7.0,16.0,56,0.00,,,0.00,weatherlink.com 1.10,2013-02-20 11:48:00,
2013-02-20 07:03:00,39.0,24.0,30.00,NW,304,3.0,10.0,56,0.00,,,0.00,weatherlink.com 1.10,2013-02-20 12:03:00,
2013-02-20 07:18:00,39.1,24.0,30.01,West,279,3.0,13.0,54,0.00,,,0.00,weatherlink.com 1.10,2013-02-20 12:18:00,
2013-02-20 07:33:00,39.3,23.0,30.02,SW,229,7.0,12.0,53,0.00,,,0.00,weatherlink.com 1.10,2013-02-20 12:33:00,
2013-02-20 07:48:00,39.7,22.0,30.02,WNW,284,7.0,15.0,50,0.00,,,0.00,weatherlink.com 1.10,2013-02-20 12:48:00,
2013-02-20 08:03:00,40.1,23.0,30.03,WNW,290,8.0,15.0,50,0.00,,,0.00,weatherlink.com 1.10,2013-02-20 13:03:00,
2013-02-20 08:18:00,40.5,23.0,30.02,West,280,8.0,14.0,49,0.00,,,0.00,weatherlink.com 1.10,2013-02-20 13:18:00,
2013-02-20 08:33:00,40.7,22.0,30.02,West,278,10.0,13.0,48,0.00,,,0.00,weatherlink.com 1.10,2013-02-20 13:33:00,
2013-02-20 08:48:00,40.8,23.0,30.03,West,275,8.0,16.0,49,0.00,,,0.00,weatherlink.com 1.10,2013-02-20 13:48:00,
2013-02-20 09:03:00,41.3,22.0,30.03,NW,304,10.0,19.0,46,0.00,,,0.00,weatherlink.com 1.10,2013-02-20 14:03:00,
2013-02-20 09:18:00,41.8,21.0,30.03,NW,322,8.0,15.0,44,0.00,,,0.00,weatherlink.com 1.10,2013-02-20 14:18:00,
2013-02-20 09:33:00,42.1,20.0,30.02,NW,306,10.0,17.0,41,0.00,,,0.00,weatherlink.com 1.10,2013-02-20 14:33:00,
2013-02-20 09:48:00,42.2,20.0,30.02,NW,305,9.0,19.0,42,0.00,,,0.00,weatherlink.com 1.10,2013-02-20 14:48:00,
2013-02-20 10:03:00,42.7,21.0,30.02,West,275,10.0,17.0,42,0.00,,,0.00,weatherlink.com 1.10,2013-02-20 15:03:00,
2013-02-20 10:18:00,42.9,20.0,30.02,West,273,12.0,17.0,40,0.00,,,0.00,weatherlink.com 1.10,2013-02-20 15:18:00,
2013-02-20 10:33:00,42.7,20.0,30.02,West,275,10.0,16.0,40,0.00,,,0.00,weatherlink.com 1.10,2013-02-20 15:33:00,
2013-02-20 10:48:00,43.1,19.0,30.02,WSW,256,6.0,15.0,38,0.00,,,0.00,weatherlink.com 1.10,2013-02-20 15:48:00,
2013-02-20 11:03:00,43.8,20.0,30.02,West,275,9.0,14.0,38,0.00,,,0.00,weatherlink.com 1.10,2013-02-20 16:03:00,
2013-02-20 11:19:00,43.8,20.0,30.02,NW,313,6.0,16.0,38,0.00,,,0.00,weatherlink.com 1.10,2013-02-20 16:19:00,
2013-02-20 11:34:00,44.1,19.0,30.02,WNW,292,5.0,17.0,37,0.00,,,0.00,weatherlink.com 1.10,2013-02-20 16:34:00,
2013-02-20 11:49:00,44.8,20.0,30.01,WNW,294,8.0,12.0,37,0.00,,,0.00,weatherlink.com 1.10,2013-02-20 16:49:00,
2013-02-20 12:04:00,45.3,20.0,30.00,WNW,299,8.0,15.0,36,0.00,,,0.00,weatherlink.com 1.10,2013-02-20 17:04:00,
2013-02-20 12:19:00,45.4,20.0,30.00,WNW,300,8.0,13.0,37,0.00,,,0.00,weatherlink.com 1.10,2013-02-20 17:19:00,
2013-02-20 12:34:00,45.4,21.0,29.99,SW,229,5.0,16.0,38,0.00,,,0.00,weatherlink.com 1.10,2013-02-20 17:34:00,
2013-02-20 12:49:00,45.3,20.0,29.99,West,281,8.0,11.0,36,0.00,,,0.00,weatherlink.com 1.10,2013-02-20 17:49:00,
2013-02-20 13:04:00,45.5,20.0,29.98,NW,322,10.0,14.0,36,0.00,,,0.00,weatherlink.com 1.10,2013-02-20 18:04:00,
2013-02-20 13:19:00,46.3,21.0,29.98,West,269,4.0,13.0,36,0.00,,,0.00,weatherlink.com 1.10,2013-02-20 18:19:00,
2013-02-20 13:34:00,46.6,20.0,29.97,NW,310,4.0,14.0,35,0.00,,,0.00,weatherlink.com 1.10,2013-02-20 18:34:00,
2013-02-20 13:49:00,47.0,21.0,29.97,WNW,288,8.0,12.0,36,0.00,,,0.00,weatherlink.com 1.10,2013-02-20 18:49:00,
2013-02-20 14:04:00,47.1,20.0,29.98,WNW,300,8.0,16.0,34,0.00,,,0.00,weatherlink.com 1.10,2013-02-20 19:04:00,
2013-02-20 14:19:00,48.0,20.0,29.97,NW,305,14.0,14.0,33,0.00,,,0.00,weatherlink.com 1.10,2013-02-20 19:19:00,
2013-02-20 14:34:00,47.3,19.0,29.96,NW,313,5.0,14.0,32,0.00,,,0.00,weatherlink.com 1.10,2013-02-20 19:34:00,
2013-02-20 14:49:00,48.2,20.0,29.96,WSW,255,9.0,13.0,33,0.00,,,0.00,weatherlink.com 1.10,2013-02-20 19:49:00,
2013-02-20 15:05:00,48.3,20.0,29.96,WNW,301,7.0,15.0,33,0.00,,,0.00,weatherlink.com 1.10,2013-02-20 20:05:00,
2013-02-20 15:20:00,48.2,19.0,29.96,WNW,303,6.0,18.0,31,0.00,,,0.00,weatherlink.com 1.10,2013-02-20 20:20:00,
2013-02-20 15:34:00,48.2,20.0,29.96,West,268,7.0,12.0,33,0.00,,,0.00,weatherlink.com 1.10,2013-02-20 20:34:00,
2013-02-20 15:51:00,48.3,19.0,29.96,WNW,296,4.0,12.0,31,0.00,,,0.00,weatherlink.com 1.10,2013-02-20 20:51:00,
2013-02-20 16:05:00,48.3,19.0,29.97,West,270,4.0,14.0,31,0.00,,,0.00,weatherlink.com 1.10,2013-02-20 21:05:00,
2013-02-20 16:20:00,48.1,18.0,29.97,West,261,6.0,11.0,30,0.00,,,0.00,weatherlink.com 1.10,2013-02-20 21:20:00,
2013-02-20 16:35:00,47.9,18.0,29.97,West,271,11.0,14.0,31,0.00,,,0.00,weatherlink.com 1.10,2013-02-20 21:35:00,
2013-02-20 16:50:00,47.5,19.0,29.98,West,274,8.0,13.0,32,0.00,,,0.00,weatherlink.com 1.10,2013-02-20 21:50:00,
2013-02-20 17:05:00,47.3,19.0,29.98,West,263,6.0,11.0,32,0.00,,,0.00,weatherlink.com 1.10,2013-02-20 22:05:00,
2013-02-20 17:20:00,46.8,20.0,29.99,West,273,4.0,11.0,34,0.00,,,0.00,weatherlink.com 1.10,2013-02-20 22:20:00,
2013-02-20 17:35:00,46.2,19.0,30.00,West,278,4.0,9.0,34,0.00,,,0.00,weatherlink.com 1.10,2013-02-20 22:35:00,
2013-02-20 17:50:00,45.9,20.0,30.00,West,275,3.0,8.0,35,0.00,,,0.00,weatherlink.com 1.10,2013-02-20 22:50:00,
2013-02-20 18:05:00,45.7,18.0,30.01,WNW,292,5.0,11.0,33,0.00,,,0.00,weatherlink.com 1.10,2013-02-20 23:05:00,
2013-02-20 18:20:00,45.2,19.0,30.02,West,262,4.0,9.0,35,0.00,,,0.00,weatherlink.com 1.10,2013-02-20 23:20:00,
2013-02-20 18:35:00,44.9,21.0,30.03,WNW,294,4.0,6.0,38,0.00,,,0.00,weatherlink.com 1.10,2013-02-20 23:35:00,
2013-02-20 18:50:00,44.0,21.0,30.04,WNW,294,0.0,2.0,40,0.00,,,0.00,weatherlink.com 1.10,2013-02-20 23:50:00,
2013-02-20 19:05:00,43.1,21.0,30.05,WNW,294,0.0,1.0,42,0.00,,,0.00,weatherlink.com 1.10,2013-02-21 00:05:00,
2013-02-20 19:20:00,42.5,22.0,30.05,WNW,294,0.0,2.0,44,0.00,,,0.00,weatherlink.com 1.10,2013-02-21 00:20:00,
2013-02-20 19:35:00,42.5,23.0,30.05,WNW,294,0.0,2.0,46,0.00,,,0.00,weatherlink.com 1.10,2013-02-21 00:35:00,
2013-02-20 19:50:00,42.4,24.0,30.05,WNW,294,0.0,1.0,48,0.00,,,0.00,weatherlink.com 1.10,2013-02-21 00:50:00,
2013-02-20 20:05:00,42.1,25.0,30.05,WNW,294,0.0,1.0,51,0.00,,,0.00,weatherlink.com 1.10,2013-02-21 01:05:00,
2013-02-20 20:20:00,41.6,24.0,30.05,WNW,294,0.0,2.0,50,0.00,,,0.00,weatherlink.com 1.10,2013-02-21 01:20:00,
2013-02-20 20:35:00,40.6,24.0,30.07,NNW,333,3.0,3.0,51,0.00,,,0.00,weatherlink.com 1.10,2013-02-21 01:35:00,
2013-02-20 20:50:00,41.1,28.0,30.08,NNE,21,3.0,7.0,61,0.00,,,0.00,weatherlink.com 1.10,2013-02-21 01:50:00,
2013-02-20 21:05:00,40.4,29.0,30.09,NE,49,5.0,8.0,64,0.00,,,0.00,weatherlink.com 1.10,2013-02-21 02:05:00,
2013-02-20 21:20:00,39.5,27.0,30.10,North,355,2.0,8.0,62,0.00,,,0.00,weatherlink.com 1.10,2013-02-21 02:20:00,
2013-02-20 21:35:00,38.7,27.0,30.11,ENE,59,5.0,10.0,62,0.00,,,0.00,weatherlink.com 1.10,2013-02-21 02:35:00,
2013-02-20 21:50:00,38.2,26.0,30.12,NNW,340,5.0,9.0,63,0.00,,,0.00,weatherlink.com 1.10,2013-02-21 02:50:00,
2013-02-20 22:05:00,38.2,26.0,30.13,North,355,5.0,9.0,63,0.00,,,0.00,weatherlink.com 1.10,2013-02-21 03:05:00,
2013-02-20 22:20:00,38.1,26.0,30.13,NNE,31,6.0,11.0,63,0.00,,,0.00,weatherlink.com 1.10,2013-02-21 03:20:00,
2013-02-20 22:35:00,38.4,25.0,30.12,NNW,336,0.0,11.0,60,0.00,,,0.00,weatherlink.com 1.10,2013-02-21 03:35:00,
2013-02-20 22:50:00,38.2,25.0,30.12,NNE,28,1.0,13.0,60,0.00,,,0.00,weatherlink.com 1.10,2013-02-21 03:50:00,
2013-02-20 23:05:00,37.8,24.0,30.13,NNE,30,4.0,13.0,57,0.00,,,0.00,weatherlink.com 1.10,2013-02-21 04:05:00,
2013-02-20 23:20:00,37.4,22.0,30.13,NW,309,3.0,11.0,55,0.00,,,0.00,weatherlink.com 1.10,2013-02-21 04:20:00,
2013-02-20 23:35:00,37.1,23.0,30.13,NE,34,6.0,9.0,58,0.00,,,0.00,weatherlink.com 1.10,2013-02-21 04:35:00,
2013-02-20 23:50:00,36.6,22.0,30.13,NNE,26,2.0,10.0,57,0.00,,,0.00,weatherlink.com 1.10,2013-02-21 04:50:00,